King Salmon, AK

9:34 PM AKST on November 21, 2017 (GMT -0900)
King Salmon

Weather History for PAKN - November, 2013

Change the Weather History Date:

Sunday, November 24, 2013

  Actual Average Record
Temperature  
Mean Temperature 31 °F 21 °F  
Max Temperature 40 °F 29 °F 46 °F (1947)
Min Temperature 21 °F 13 °F -27 °F (2005)
Degree Days  
Heating Degree Days 34 44  
Month to date heating degree days 869 997  
Since 1 July heating degree days 2582 3111  
Cooling Degree Days 0 0  
Month to date cooling degree days 0 0  
Year to date cooling degree days 4 1  
Moisture  
Dew Point 30 °F    
Average Humidity 0    
Maximum Humidity 0    
Minimum Humidity 0    
Precipitation  
Precipitation 0.04 in 0.04 in 1.37 in (2015)
Month to date precipitation 2.61 1.13  
Year to date precipitation 23.41 18.00  
Snow  
Snow 0.30 in 0.30 in 3.40 in (2015)
Month to date snowfall 11.6 5.1  
Since 1 July snowfall 11.6 8.0  
Since 1 September snowfall 11.6 8.0  
Snow Depth 8.00 in    
Sea Level Pressure  
Sea Level Pressure 29.75 in    
Wind  
Wind Speed 11 mph (ENE)    
Max Wind Speed 17 mph    
Max Gust Speed 23 mph    
Visibility 9 miles    
Events Rain , Snow    
T = Trace of Precipitation, MM = Missing Value Source: NWS Daily Summary

Daily Weather History Graph

Daily Weather History Graph

Search for Another Location

Airport or City:

Trip Planner

Search our weather history database for the weather conditions in past years. The results will help you decide how hot, cold, wet, or windy it might be!

Date:

Astronomy

Nov. 24, 2013 Rise Set
Actual Time 9:38 AM AKST 4:48 PM AKST
Civil Twilight 8:49 AM AKST 5:37 PM AKST
Nautical Twilight 7:57 AM AKST 6:28 PM AKST
Astronomical Twilight 7:09 AM AKST 7:16 PM AKST
Moon No Moon Rise 1:46 PM AKST (11/24)
Length of Visible Light 8h 48m
Length of Day
7h 09m
Waning Gibbous, 59% of the Moon is Illuminated
Nov 24
Waning Gibbous
Nov 25
Last Quarter
Dec 2
New
Dec 9
First Quarter
Dec 17
Full

Hourly Weather History & Observations

Time (AKST) Temp. Windchill Dew Point Humidity Pressure Visibility Wind Dir Wind Speed Gust Speed Precip Events Conditions
12:27 AM 24.8 °F 16.1 °F 19.4 °F 80% 29.84 in 2.5 mi ENE 8.1 mph - 0.00 in Snow Light Snow
12:39 AM 28.4 °F 19.1 °F 26.6 °F 93% 29.84 in 1.5 mi ENE 10.4 mph - 0.00 in Snow Light Snow
12:54 AM 28.9 °F 20.4 °F 27.0 °F 92% 29.84 in 1.8 mi ENE 9.2 mph - 0.02 in Snow Light Snow
1:09 AM 28.4 °F 19.1 °F 28.4 °F 100% 29.84 in 2.0 mi ENE 10.4 mph - 0.00 in Snow Light Snow
1:32 AM 28.4 °F 19.7 °F 28.4 °F 100% 29.83 in 3.0 mi NE 9.2 mph - 0.01 in Snow Light Snow
1:54 AM 28.9 °F 20.4 °F 28.0 °F 96% 29.83 in 9.0 mi NE 9.2 mph - 0.01 in Snow Light Snow
2:13 AM 30.2 °F 21.3 °F 28.4 °F 93% 29.81 in 9.0 mi NE 10.4 mph - 0.00 in Snow Light Snow
2:54 AM 30.0 °F 21.7 °F 27.0 °F 88% 29.81 in 9.0 mi NNE 9.2 mph - 0.00 in Snow Light Snow
3:54 AM 30.9 °F 23.5 °F 27.0 °F 85% 29.79 in 10.0 mi NNE 8.1 mph - 0.00 in   Overcast
4:54 AM 30.0 °F 24.1 °F 26.1 °F 85% 29.77 in 10.0 mi NE 5.8 mph - N/A   Scattered Clouds
5:54 AM 30.9 °F 25.2 °F 26.1 °F 82% 29.76 in 10.0 mi NE 5.8 mph - N/A   Overcast
6:54 AM 34.0 °F 26.0 °F 28.0 °F 79% 29.75 in 10.0 mi East 10.4 mph - 0.00 in Rain Light Rain
7:54 AM 35.1 °F 26.9 °F 30.0 °F 82% 29.73 in 10.0 mi East 11.5 mph - 0.00 in   Overcast
8:54 AM 37.0 °F 28.5 °F 32.0 °F 82% 29.72 in 10.0 mi East 13.8 mph 23.0 mph N/A   Overcast
9:54 AM 39.0 °F 30.6 °F 32.0 °F 76% 29.72 in 10.0 mi East 15.0 mph - N/A   Overcast
10:54 AM 37.9 °F 30.5 °F 32.0 °F 79% 29.72 in 10.0 mi East 11.5 mph - N/A   Overcast
11:54 AM 39.0 °F 31.0 °F 33.1 °F 79% 29.73 in 10.0 mi East 13.8 mph - 0.00 in Rain Light Rain
12:54 PM 39.0 °F 32.8 °F 33.1 °F 79% 29.72 in 10.0 mi East 9.2 mph - 0.01 in   Overcast
1:54 PM 37.9 °F 32.7 °F 33.1 °F 83% 29.71 in 10.0 mi East 6.9 mph - N/A   Overcast
2:54 PM 39.0 °F 34.0 °F 33.1 °F 79% 29.71 in 10.0 mi East 6.9 mph - N/A   Overcast
3:54 PM 39.9 °F 32.1 °F 32.0 °F 73% 29.70 in 10.0 mi East 13.8 mph - N/A   Overcast
4:54 PM 39.0 °F 30.6 °F 33.1 °F 79% 29.70 in 10.0 mi East 15.0 mph 23.0 mph N/A   Overcast
5:54 PM 39.0 °F 31.4 °F 32.0 °F 76% 29.70 in 10.0 mi East 12.7 mph - N/A   Overcast
6:54 PM 39.0 °F 31.4 °F 33.1 °F 79% 29.70 in 10.0 mi East 12.7 mph - N/A   Overcast
7:54 PM 39.0 °F 31.8 °F 33.1 °F 79% 29.70 in 10.0 mi East 11.5 mph - N/A   Overcast
8:54 PM 39.9 °F 32.1 °F 33.1 °F 77% 29.70 in 10.0 mi East 13.8 mph 21.9 mph N/A   Overcast
9:54 PM 39.0 °F 32.8 °F 33.1 °F 79% 29.70 in 10.0 mi East 9.2 mph - N/A   Overcast
10:54 PM 39.9 °F 32.1 °F 33.1 °F 77% 29.70 in 10.0 mi East 13.8 mph - N/A   Overcast
11:54 PM 37.9 °F 31.5 °F 33.1 °F 83% 29.70 in 10.0 mi East 9.2 mph - N/A   Overcast